Time,TemperatureF,DewpointF,PressureIn,WindDirection,WindDirectionDegrees,WindSpeedMPH,WindSpeedGustMPH,Humidity,HourlyPrecipIn,Conditions,Clouds,dailyrainin,SoftwareType,DateUTC
2013-01-18 01:33:00,28.0,-99.9,-100.00,SSE,151,2.0,-999.0,-999,0.00,,,0.00,,2013-01-18 07:33:00,
2013-01-18 01:43:00,28.0,-99.9,-100.00,SSE,151,2.0,-999.0,-999,0.00,,,0.00,,2013-01-18 07:43:00,
2013-01-18 01:53:00,28.0,-99.9,-100.00,SSE,151,2.0,-999.0,-999,0.00,,,0.00,,2013-01-18 07:53:00,
2013-01-18 02:02:00,28.0,-99.9,-100.00,South,174,3.0,-999.0,-999,0.00,,,0.00,,2013-01-18 08:02:00,
2013-01-18 02:12:00,28.0,-99.9,-100.00,South,174,3.0,-999.0,-999,0.00,,,0.00,,2013-01-18 08:12:00,
2013-01-18 02:22:00,28.0,-99.9,-100.00,South,174,3.0,-999.0,-999,0.00,,,0.00,,2013-01-18 08:22:00,
2013-01-18 02:33:00,28.0,-99.9,-100.00,SSE,166,6.0,-999.0,-999,0.00,,,0.00,,2013-01-18 08:33:00,
2013-01-18 02:43:00,28.0,-99.9,-100.00,SSE,166,6.0,-999.0,-999,0.00,,,0.00,,2013-01-18 08:43:00,
2013-01-18 02:53:00,28.0,-99.9,-100.00,SSE,166,6.0,-999.0,-999,0.00,,,0.00,,2013-01-18 08:53:00,
2013-01-18 03:00:00,-999.0,-99.9,-100.00,North,-999,5.0,-999.0,-999,0.00,,,0.00,,2013-01-18 09:00:00,
2013-01-18 03:03:00,29.0,-99.9,-100.00,SSE,158,7.0,-999.0,-999,0.00,,,0.00,,2013-01-18 09:03:00,
2013-01-18 03:12:00,29.0,-99.9,-100.00,SSE,158,7.0,-999.0,-999,0.00,,,0.00,,2013-01-18 09:12:00,
2013-01-18 03:22:00,29.0,-99.9,-100.00,SSE,158,7.0,-999.0,-999,0.00,,,0.00,,2013-01-18 09:22:00,
2013-01-18 03:33:00,-999.0,-99.9,-100.00,North,-999,5.0,-999.0,-999,0.00,,,0.00,,2013-01-18 09:33:00,
2013-01-18 03:43:00,-999.0,-99.9,-100.00,North,-999,5.0,-999.0,-999,0.00,,,0.00,,2013-01-18 09:43:00,
2013-01-18 03:53:00,-999.0,-99.9,-100.00,North,-999,5.0,-999.0,-999,0.00,,,0.00,,2013-01-18 09:53:00,
2013-01-18 07:03:00,30.0,-99.9,-100.00,SSE,162,8.0,-999.0,-999,-99.99,,,0.00,,2013-01-18 13:03:00,
2013-01-18 07:12:00,30.0,-99.9,-100.00,SSE,162,8.0,-999.0,-999,-99.99,,,0.00,,2013-01-18 13:12:00,
2013-01-18 07:23:00,30.0,-99.9,-100.00,SSE,162,8.0,-999.0,-999,-99.99,,,0.00,,2013-01-18 13:23:00,
2013-01-18 07:34:00,30.0,-99.9,-100.00,SSE,163,8.0,-999.0,-999,0.00,,,0.00,,2013-01-18 13:34:00,
2013-01-18 07:43:00,30.0,-99.9,-100.00,SSE,163,8.0,-999.0,-999,0.00,,,0.00,,2013-01-18 13:43:00,
2013-01-18 07:53:00,30.0,-99.9,-100.00,SSE,163,8.0,-999.0,-999,0.00,,,0.00,,2013-01-18 13:53:00,
2013-01-18 08:03:00,32.0,-99.9,-100.00,SSE,162,12.0,-999.0,-999,0.00,,,0.00,,2013-01-18 14:03:00,
2013-01-18 08:13:00,32.0,-99.9,-100.00,SSE,162,12.0,-999.0,-999,0.00,,,0.00,,2013-01-18 14:13:00,
2013-01-18 08:23:00,32.0,-99.9,-100.00,SSE,162,12.0,-999.0,-999,0.00,,,0.00,,2013-01-18 14:23:00,
2013-01-18 08:34:00,32.0,-99.9,-100.00,SSE,166,9.0,-999.0,-999,0.00,,,0.00,,2013-01-18 14:34:00,
2013-01-18 08:43:00,32.0,-99.9,-100.00,SSE,166,9.0,-999.0,-999,0.00,,,0.00,,2013-01-18 14:43:00,
2013-01-18 08:53:00,32.0,-99.9,-100.00,SSE,166,9.0,-999.0,-999,0.00,,,0.00,,2013-01-18 14:53:00,
2013-01-18 09:03:00,34.0,-99.9,-100.00,South,169,9.0,-999.0,-999,0.00,,,0.00,,2013-01-18 15:03:00,
2013-01-18 09:13:00,34.0,-99.9,-100.00,South,169,9.0,-999.0,-999,0.00,,,0.00,,2013-01-18 15:13:00,
2013-01-18 09:23:00,34.0,-99.9,-100.00,South,169,9.0,-999.0,-999,0.00,,,0.00,,2013-01-18 15:23:00,
2013-01-18 09:34:00,35.0,-99.9,-100.00,South,172,12.0,-999.0,-999,0.00,,,0.00,,2013-01-18 15:34:00,
2013-01-18 09:44:00,35.0,-99.9,-100.00,South,172,12.0,-999.0,-999,0.00,,,0.00,,2013-01-18 15:44:00,
2013-01-18 09:54:00,35.0,-99.9,-100.00,South,172,12.0,-999.0,-999,0.00,,,0.00,,2013-01-18 15:54:00,
2013-01-18 10:03:00,37.0,-99.9,-100.00,South,172,12.0,-999.0,-999,0.00,,,0.00,,2013-01-18 16:03:00,
2013-01-18 10:13:00,37.0,-99.9,-100.00,South,172,12.0,-999.0,-999,0.00,,,0.00,,2013-01-18 16:13:00,
2013-01-18 10:23:00,37.0,-99.9,-100.00,South,172,12.0,-999.0,-999,0.00,,,0.00,,2013-01-18 16:23:00,
2013-01-18 10:34:00,39.0,-99.9,-100.00,South,172,11.0,-999.0,-999,0.00,,,0.00,,2013-01-18 16:34:00,
2013-01-18 10:43:00,39.0,-99.9,-100.00,South,172,11.0,-999.0,-999,0.00,,,0.00,,2013-01-18 16:43:00,
2013-01-18 10:53:00,39.0,-99.9,-100.00,South,172,11.0,-999.0,-999,0.00,,,0.00,,2013-01-18 16:53:00,
2013-01-18 11:03:00,40.0,-99.9,-100.00,SSE,167,13.0,-999.0,-999,0.00,,,0.00,,2013-01-18 17:03:00,
2013-01-18 11:13:00,40.0,-99.9,-100.00,SSE,167,13.0,-999.0,-999,0.00,,,0.00,,2013-01-18 17:13:00,
2013-01-18 11:23:00,40.0,-99.9,-100.00,SSE,167,13.0,-999.0,-999,0.00,,,0.00,,2013-01-18 17:23:00,
2013-01-18 11:34:00,42.0,-99.9,-100.00,South,172,13.0,-999.0,-999,0.00,,,0.00,,2013-01-18 17:34:00,
2013-01-18 11:43:00,42.0,-99.9,-100.00,South,172,13.0,-999.0,-999,0.00,,,0.00,,2013-01-18 17:43:00,
2013-01-18 11:53:00,42.0,-99.9,-100.00,South,172,13.0,-999.0,-999,0.00,,,0.00,,2013-01-18 17:53:00,
2013-01-18 12:04:00,43.0,-99.9,-100.00,SSE,167,12.0,-999.0,-999,0.00,,,0.00,,2013-01-18 18:04:00,
2013-01-18 12:13:00,43.0,-99.9,-100.00,SSE,167,12.0,-999.0,-999,0.00,,,0.00,,2013-01-18 18:13:00,
2013-01-18 12:24:00,43.0,-99.9,-100.00,SSE,167,12.0,-999.0,-999,0.00,,,0.00,,2013-01-18 18:24:00,
2013-01-18 12:34:00,45.0,-99.9,-100.00,South,170,14.0,-999.0,-999,0.00,,,0.00,,2013-01-18 18:34:00,
2013-01-18 12:44:00,45.0,-99.9,-100.00,South,170,14.0,-999.0,-999,0.00,,,0.00,,2013-01-18 18:44:00,
2013-01-18 12:53:00,45.0,-99.9,-100.00,South,170,14.0,-999.0,-999,0.00,,,0.00,,2013-01-18 18:53:00,
2013-01-18 13:04:00,47.0,-99.9,-100.00,South,169,15.0,-999.0,-999,0.00,,,0.00,,2013-01-18 19:04:00,
2013-01-18 13:13:00,47.0,-99.9,-100.00,South,169,15.0,-999.0,-999,0.00,,,0.00,,2013-01-18 19:13:00,
2013-01-18 13:23:00,47.0,-99.9,-100.00,South,169,15.0,-999.0,-999,0.00,,,0.00,,2013-01-18 19:23:00,
2013-01-18 13:33:00,48.0,-99.9,-100.00,SSE,166,14.0,-999.0,-999,0.00,,,0.00,,2013-01-18 19:33:00,
2013-01-18 13:43:00,48.0,-99.9,-100.00,SSE,166,14.0,-999.0,-999,0.00,,,0.00,,2013-01-18 19:43:00,
2013-01-18 13:53:00,48.0,-99.9,-100.00,SSE,166,14.0,-999.0,-999,0.00,,,0.00,,2013-01-18 19:53:00,
2013-01-18 14:03:00,49.0,-99.9,-100.00,South,175,15.0,-999.0,-999,0.00,,,0.00,,2013-01-18 20:03:00,
2013-01-18 14:13:00,49.0,-99.9,-100.00,South,175,15.0,-999.0,-999,0.00,,,0.00,,2013-01-18 20:13:00,
2013-01-18 14:23:00,49.0,-99.9,-100.00,South,175,15.0,-999.0,-999,0.00,,,0.00,,2013-01-18 20:23:00,
2013-01-18 14:34:00,51.0,-99.9,-100.00,South,182,14.0,-999.0,-999,0.00,,,0.00,,2013-01-18 20:34:00,
2013-01-18 14:43:00,51.0,-99.9,-100.00,South,182,14.0,-999.0,-999,0.00,,,0.00,,2013-01-18 20:43:00,
2013-01-18 14:53:00,51.0,-99.9,-100.00,South,182,14.0,-999.0,-999,0.00,,,0.00,,2013-01-18 20:53:00,
2013-01-18 15:03:00,52.0,-99.9,-100.00,South,180,12.0,-999.0,-999,0.00,,,0.00,,2013-01-18 21:03:00,
2013-01-18 15:13:00,52.0,-99.9,-100.00,South,180,12.0,-999.0,-999,0.00,,,0.00,,2013-01-18 21:13:00,
2013-01-18 15:23:00,52.0,-99.9,-100.00,South,180,12.0,-999.0,-999,0.00,,,0.00,,2013-01-18 21:23:00,
2013-01-18 15:33:00,53.0,-99.9,-100.00,South,180,16.0,-999.0,-999,0.00,,,0.00,,2013-01-18 21:33:00,
2013-01-18 15:43:00,53.0,-99.9,-100.00,South,180,16.0,-999.0,-999,0.00,,,0.00,,2013-01-18 21:43:00,
2013-01-18 15:53:00,53.0,-99.9,-100.00,South,180,16.0,-999.0,-999,0.00,,,0.00,,2013-01-18 21:53:00,
2013-01-18 16:03:00,54.0,-99.9,-100.00,South,187,13.0,-999.0,-999,0.00,,,0.00,,2013-01-18 22:03:00,
2013-01-18 16:12:00,54.0,-99.9,-100.00,South,187,13.0,-999.0,-999,0.00,,,0.00,,2013-01-18 22:12:00,
2013-01-18 16:23:00,54.0,-99.9,-100.00,South,187,13.0,-999.0,-999,0.00,,,0.00,,2013-01-18 22:23:00,
2013-01-18 16:33:00,53.0,-99.9,-100.00,South,181,13.0,-999.0,-999,0.00,,,0.00,,2013-01-18 22:33:00,
2013-01-18 16:43:00,53.0,-99.9,-100.00,South,181,13.0,-999.0,-999,0.00,,,0.00,,2013-01-18 22:43:00,
2013-01-18 16:53:00,53.0,-99.9,-100.00,South,181,13.0,-999.0,-999,0.00,,,0.00,,2013-01-18 22:53:00,
2013-01-18 17:03:00,53.0,-99.9,-100.00,South,181,11.0,-999.0,-999,0.00,,,-99.99,,2013-01-18 23:03:00,
2013-01-18 17:12:00,53.0,-99.9,-100.00,South,181,11.0,-999.0,-999,0.00,,,-99.99,,2013-01-18 23:12:00,
2013-01-18 17:23:00,53.0,-99.9,-100.00,South,181,11.0,-999.0,-999,0.00,,,-99.99,,2013-01-18 23:23:00,
2013-01-18 17:33:00,52.0,-99.9,-100.00,South,190,12.0,-999.0,-999,0.00,,,0.00,,2013-01-18 23:33:00,
2013-01-18 17:43:00,52.0,-99.9,-100.00,South,190,12.0,-999.0,-999,0.00,,,0.00,,2013-01-18 23:43:00,
2013-01-18 17:53:00,52.0,-99.9,-100.00,South,190,12.0,-999.0,-999,0.00,,,0.00,,2013-01-18 23:53:00,
2013-01-18 18:03:00,51.0,-99.9,-100.00,South,187,10.0,-999.0,-999,0.00,,,0.00,,2013-01-19 00:03:00,
2013-01-18 18:13:00,51.0,-99.9,-100.00,South,187,10.0,-999.0,-999,0.00,,,0.00,,2013-01-19 00:13:00,
2013-01-18 18:23:00,51.0,-99.9,-100.00,South,187,10.0,-999.0,-999,0.00,,,0.00,,2013-01-19 00:23:00,
2013-01-18 18:33:00,50.0,-99.9,-100.00,South,178,9.0,-999.0,-999,0.00,,,0.00,,2013-01-19 00:33:00,
2013-01-18 18:43:00,50.0,-99.9,-100.00,South,178,9.0,-999.0,-999,0.00,,,0.00,,2013-01-19 00:43:00,
2013-01-18 18:53:00,50.0,-99.9,-100.00,South,178,9.0,-999.0,-999,0.00,,,0.00,,2013-01-19 00:53:00,
2013-01-18 19:03:00,49.0,-99.9,-100.00,SSW,194,7.0,-999.0,-999,0.00,,,0.00,,2013-01-19 01:03:00,
2013-01-18 19:13:00,49.0,-99.9,-100.00,SSW,194,7.0,-999.0,-999,0.00,,,0.00,,2013-01-19 01:13:00,
2013-01-18 19:23:00,49.0,-99.9,-100.00,SSW,194,7.0,-999.0,-999,0.00,,,0.00,,2013-01-19 01:23:00,
2013-01-18 19:33:00,48.0,-99.9,-100.00,South,183,7.0,-999.0,-999,0.00,,,0.00,,2013-01-19 01:33:00,
2013-01-18 19:43:00,48.0,-99.9,-100.00,South,183,7.0,-999.0,-999,0.00,,,0.00,,2013-01-19 01:43:00,
2013-01-18 19:53:00,48.0,-99.9,-100.00,South,183,7.0,-999.0,-999,0.00,,,0.00,,2013-01-19 01:53:00,
2013-01-18 20:03:00,48.0,-99.9,-100.00,SSW,192,8.0,-999.0,-999,0.00,,,0.00,,2013-01-19 02:03:00,
2013-01-18 20:12:00,48.0,-99.9,-100.00,SSW,192,8.0,-999.0,-999,0.00,,,0.00,,2013-01-19 02:12:00,
2013-01-18 20:23:00,48.0,-99.9,-100.00,SSW,192,8.0,-999.0,-999,0.00,,,0.00,,2013-01-19 02:23:00,
2013-01-18 20:33:00,48.0,-99.9,-100.00,South,186,8.0,-999.0,-999,0.00,,,0.00,,2013-01-19 02:33:00,
2013-01-18 20:43:00,48.0,-99.9,-100.00,South,186,8.0,-999.0,-999,0.00,,,0.00,,2013-01-19 02:43:00,
2013-01-18 20:53:00,48.0,-99.9,-100.00,South,186,8.0,-999.0,-999,0.00,,,0.00,,2013-01-19 02:53:00,
2013-01-18 21:03:00,47.0,-99.9,-100.00,SSW,195,8.0,-999.0,-999,0.00,,,-99.99,,2013-01-19 03:03:00,
2013-01-18 21:12:00,47.0,-99.9,-100.00,SSW,195,8.0,-999.0,-999,0.00,,,-99.99,,2013-01-19 03:12:00,
2013-01-18 21:23:00,47.0,-99.9,-100.00,SSW,195,8.0,-999.0,-999,0.00,,,-99.99,,2013-01-19 03:23:00,
2013-01-18 21:33:00,47.0,-99.9,-100.00,SSW,196,7.0,-999.0,-999,0.00,,,0.00,,2013-01-19 03:33:00,
2013-01-18 21:44:00,47.0,-99.9,-100.00,SSW,196,7.0,-999.0,-999,0.00,,,0.00,,2013-01-19 03:44:00,
2013-01-18 21:53:00,47.0,-99.9,-100.00,SSW,196,7.0,-999.0,-999,0.00,,,0.00,,2013-01-19 03:53:00,
2013-01-18 22:03:00,46.0,-99.9,-100.00,South,177,9.0,-999.0,-999,0.00,,,0.00,,2013-01-19 04:03:00,
2013-01-18 22:12:00,46.0,-99.9,-100.00,South,177,9.0,-999.0,-999,0.00,,,0.00,,2013-01-19 04:12:00,
2013-01-18 22:22:00,46.0,-99.9,-100.00,South,177,9.0,-999.0,-999,0.00,,,0.00,,2013-01-19 04:22:00,
2013-01-18 22:33:00,46.0,-99.9,-100.00,SSW,196,7.0,-999.0,-999,0.00,,,0.00,,2013-01-19 04:33:00,
2013-01-18 22:43:00,46.0,-99.9,-100.00,SSW,196,7.0,-999.0,-999,0.00,,,0.00,,2013-01-19 04:43:00,
2013-01-18 22:53:00,46.0,-99.9,-100.00,SSW,196,7.0,-999.0,-999,0.00,,,0.00,,2013-01-19 04:53:00,
2013-01-18 23:04:00,45.0,-99.9,-100.00,South,191,8.0,-999.0,-999,0.00,,,0.00,,2013-01-19 05:04:00,
2013-01-18 23:13:00,45.0,-99.9,-100.00,South,191,8.0,-999.0,-999,0.00,,,0.00,,2013-01-19 05:13:00,
2013-01-18 23:23:00,45.0,-99.9,-100.00,South,191,8.0,-999.0,-999,0.00,,,0.00,,2013-01-19 05:23:00,
2013-01-18 23:33:00,45.0,-99.9,-100.00,SSW,199,9.0,-999.0,-999,0.00,,,0.00,,2013-01-19 05:33:00,
2013-01-18 23:43:00,45.0,-99.9,-100.00,SSW,199,9.0,-999.0,-999,0.00,,,0.00,,2013-01-19 05:43:00,
2013-01-18 23:53:00,45.0,-99.9,-100.00,SSW,199,9.0,-999.0,-999,0.00,,,0.00,,2013-01-19 05:53:00,